Location: Passau
(48.5830°N, 13.4830°E)
Time: 22:08:20
(UTC+02:00)

S-56A Canister/Altair - Pass Details

Date: 21 May 2024
Orbit: 637 x 2489 km, 38.9° (Epoch: 16 June)

Event Time Altitude Azimuth Distance (km) Brightness Sun altitude
Rises 07:42:38 0° 227° (SW) 5,774 11.5 21.6°
Reaches altitude 10° 07:47:11 10° 220° (SW) 4,529 11.1 22.3°
Maximum altitude 07:57:16 34° 162° (SSE) 2,426 10.5 24.0°
Drops below altitude 10° 08:04:31 10° 101° (E) 3,228 12.4 25.2°
Sets 08:07:11 0° 92° (E) 3,961 12.5 25.6°
